Location: Unspecified
(0.0000°N, 0.0000°E)
Time: 18:02:22
(UTC+00:00)

Courier 1B Rocket - Pass Details

Date: 01 October 2020
Orbit: 921 x 1202 km, 28.2° (Epoch: 27 October)

Event Time Altitude Azimuth Distance (km) Brightness Sun altitude
Rises 22:13:02 0° 215° (SW) 4,093 - -65.7°
Reaches altitude 10° 22:17:15 10° 195° (SSW) 3,110 - -66.7°
Maximum altitude 22:21:48 16° 158° (SSE) 2,616 - -67.8°
Drops below altitude 10° 22:26:14 10° 122° (ESE) 3,023 - -68.9°
Sets 22:30:13 0° 102° (ESE) 3,928 - -69.9°
